Nausori, Fiji

1:09 AM +12 on March 29, 2017 (GMT +1200)
Nausori International

Weather History for NFNA - November, 2012

Change the Weather History Date:

Saturday, November 3, 2012

  Actual Average Record
Temperature  
Mean Temperature 76 °F -  
Max Temperature 80 °F 84 °F - ()
Min Temperature 71 °F 72 °F - ()
Cooling Degree Days 10    
Growing Degree Days 26 (Base 50)    
Moisture  
Dew Point 71 °F    
Average Humidity 83    
Maximum Humidity 100    
Minimum Humidity 61    
Precipitation  
Precipitation 0.00 in 0.35 in - ()
Sea Level Pressure  
Sea Level Pressure 29.89 in    
Wind  
Wind Speed 1 mph ()    
Max Wind Speed 9 mph    
Max Gust Speed -    
Visibility 12.0 miles    
Events      
T = Trace of Precipitation, MM = Missing Value Source: Averaged Metar Reports

Daily Weather History Graph

Daily Weather History Graph

Search for Another Location

Airport or City:

Trip Planner

Search our weather history database for the weather conditions in past years. The results will help you decide how hot, cold, wet, or windy it might be!

Date:

Astronomy

Nov. 03, 2012 Rise Set
Actual Time 6:25 AM +13 7:13 PM +13
Civil Twilight 6:02 AM +13 7:35 PM +13
Nautical Twilight 5:36 AM +13 8:02 PM +13
Astronomical Twilight 5:08 AM +13 8:29 PM +13
Moon 10:45 PM +13 (11/3) 9:22 AM +13 (11/3)
Length of Visible Light 13h 33m
Length of Day
12h 47m
Waning Gibbous, 85% of the Moon is Illuminated
Nov 3
Waning Gibbous
Nov 7
Last Quarter
Nov 14
New
Nov 21
First Quarter
Nov 29
Full

Hourly Weather History & Observations

Time (+13) Temp. Heat Index Dew Point Humidity Pressure Visibility Wind Dir Wind Speed Gust Speed Precip Events Conditions
12:00 AM 75.2 °F - 73.4 °F 94% 29.89 in 24.9 mi Calm Calm - N/A   Mostly Cloudy
1:00 AM 75 °F - 72 °F 89% 29.89 in 12 mi Calm Calm - -   Partly Cloudy
1:00 AM 75.2 °F - 73.4 °F 94% 29.89 in 24.9 mi Calm Calm - N/A   Mostly Cloudy
2:00 AM 73.4 °F - 71.6 °F 94% 29.86 in 24.9 mi Calm Calm - N/A   Mostly Cloudy
3:00 AM 73.4 °F - 71.6 °F 94% 29.86 in 24.9 mi Calm Calm - N/A   Mostly Cloudy
4:00 AM 73.4 °F - 71.6 °F 94% 29.86 in 24.9 mi Calm Calm - N/A   Mostly Cloudy
5:00 AM 71.6 °F - 71.6 °F 100% 29.86 in 24.9 mi Calm Calm - N/A   Mostly Cloudy
6:00 AM 71.6 °F - 71.6 °F 100% 29.86 in 24.9 mi Calm Calm - N/A   Mostly Cloudy
7:00 AM 72 °F - 72 °F 98% 29.89 in 31 mi Calm Calm - -   Partly Cloudy
7:00 AM 71.6 °F - 71.6 °F 100% 29.89 in 24.9 mi Calm Calm - N/A   Mostly Cloudy
8:00 AM 73.4 °F - 73.4 °F 100% 29.89 in 24.9 mi Calm Calm - N/A   Mostly Cloudy
9:00 AM 78.8 °F - 71.6 °F 78% 29.92 in 31.1 mi East 8.1 mph - N/A   Mostly Cloudy
10:00 AM 80 °F - 69 °F 62% 29.91 in 31 mi ESE 8.1 mph - -   Partly Cloudy
10:00 AM 80.6 °F 83.9 °F 69.8 °F 70% 29.89 in 31.1 mi ESE 8.1 mph - N/A   Mostly Cloudy
11:00 AM 78.8 °F - 69.8 °F 74% 29.89 in 31.1 mi ESE 9.2 mph - N/A   Mostly Cloudy
12:00 PM 78.8 °F - 69.8 °F 74% 29.89 in 31.1 mi ESE 9.2 mph - N/A   Mostly Cloudy
1:00 PM 80 °F - 69 °F 61% 29.89 in 31 mi East 6.9 mph - -   Partly Cloudy
1:00 PM 80.6 °F 83.9 °F 69.8 °F 70% 29.89 in 31.1 mi East 6.9 mph - N/A   Mostly Cloudy
2:00 PM 80.6 °F 83.2 °F 68.0 °F 65% 29.86 in 31.1 mi Calm Calm - N/A   Mostly Cloudy
3:00 PM 80.6 °F 83.9 °F 69.8 °F 70% 29.86 in 31.1 mi ENE 6.9 mph - N/A   Mostly Cloudy
4:00 PM 79 °F - 68 °F 62% 29.86 in 31 mi Calm Calm - -   Partly Cloudy
4:00 PM 78.8 °F - 68.0 °F 69% 29.86 in 31.1 mi Calm Calm - N/A   Mostly Cloudy
5:00 PM 78.8 °F - 69.8 °F 74% 29.86 in 31.1 mi Calm Calm - N/A   Mostly Cloudy
6:00 PM 77.0 °F - 73.4 °F 89% 29.86 in 31.1 mi Calm Calm - N/A   Mostly Cloudy
7:00 PM 77 °F - 71 °F 75% 29.90 in 12 mi Calm Calm - -   Partly Cloudy
7:00 PM 77.0 °F - 69.8 °F 78% 29.89 in 31.1 mi Calm Calm - N/A   Mostly Cloudy
8:00 PM 75.2 °F - 71.6 °F 89% 29.89 in 24.9 mi Calm Calm - N/A   Mostly Cloudy
9:00 PM 75.2 °F - 71.6 °F 89% 29.92 in 24.9 mi Calm Calm - N/A   Mostly Cloudy
10:00 PM 74 °F - 72 °F 90% 29.94 in 12 mi Calm Calm - -   Partly Cloudy
10:00 PM 75.2 °F - 71.6 °F 89% 29.92 in 24.9 mi Calm Calm - N/A   Mostly Cloudy
11:00 PM 73.4 °F - 71.6 °F 94% 29.92 in 24.9 mi Calm Calm - N/A   Mostly Cloudy